Location: ?astrovice
(49.6513°N, 14.9287°E)
Time: 12:40:53
(UTC+00:00)

FO-99 - Visible Passes

Search period start: 23 October 2021 00:00
Search period end: 02 November 2021 00:00
Orbit: 472 x 501 km, 97.2° (Epoch: 22 October)

Date Brightness Start Highest point End Pass type
(mag) Time Alt. Az. Time Alt. Az. Time Alt. Az.
23 Oct ? 17:16:34 11° NE 17:16:34 11° NE 17:16:47 10° NNE visible
23 Oct ? 18:50:58 15° NNW 18:50:58 15° NNW 18:51:42 10° NNW visible
24 Oct ? 18:27:04 16° N 18:27:04 16° N 18:27:52 10° N visible
25 Oct ? 18:03:10 14° N 18:03:10 14° N 18:03:50 10° N visible
26 Oct ? 17:39:14 12° NNE 17:39:14 12° NNE 17:39:35 10° NNE visible
27 Oct ? 18:49:44 11° NNW 18:49:44 11° NNW 18:49:51 10° NNW visible
28 Oct ? 18:25:48 11° N 18:25:48 11° N 18:25:59 10° N visible
29 Oct ? 18:01:51 10° N 18:01:51 10° N 18:01:55 10° N visible
